Cloud_Cover
5 5 53 5 2 1 0 2 4 1 0 0 0 0 0 0 0 0 0 0 0 0 0 6 1 49 44 23 97 100 100 100
62 54 71 6 100 100 97 12 22 31 5 4 4 1 0 0 0 0 0 0 0 0 27 100 100 100 37 47 18 98 100 100
5 5 5 1 5 5 4 5 5 1 0 0 0 0 0 0 0 0 0 0 0 0 16 99 100 100 100 73 40 24 100 100
44 27 5 11 5 4 3 5 5 0 0 0 0 0 0 0 12 33 12 16 6 4 6 24 100 100 100 100 95 48 96 100
5 5 2 6 5 5 5 0 0 0 0 0 0 1 4 12 96 100 66 77 69 46 100 100 99 100 100 100 100 94 45 100
5 4 4 2 5 5 1 0 0 0 0 5 5 5 6 23 99 100 100 70 100 100 98 100 100 100 100 100 100 100 83 58
2 0 3 5 8 7 0 2 2 5 7 30 5 5 44 99 94 100 100 92 100 100 100 100 100 100 100 100 100 100 100 83
0 0 4 5 4 2 10 5 5 75 10 5 5 30 100 100 98 100 100 100 100 100 100 100 100 100 100 100 100 100 100 100
88 5 2 56 89 90 7 5 5 5 5 5 5 60 100 100 66 89 100 100 100 100 100 100 100 100 100 100 100 100 100 100
98 88 7 5 18 5 5 8 36 8 35 5 47 66 99 75 38 78 100 100 100 100 100 100 100 100 100 100 100 100 100 100
54 5 5 5 5 5 5 5 89 95 68 6 100 100 100 5 13 81 100 100 100 98 100 100 100 100 99 100 100 100 100 100
40 16 51 8 5 5 5 6 56 5 5 34 98 76 99 5 10 15 48 100 75 80 97 100 100 100 100 100 100 100 100 100
20 43 6 5 5 5 5 5 7 5 5 5 81 5 91 68 22 8 26 100 62 77 98 100 100 100 100 100 100 100 100 100
100 100 100 100 95 47 88 86 100 100 100 95 27 37 100 99 38 5 22 62 58 92 91 100 100 100 100 100 100 100 100 100
100 100 100 50 96 100 100 100 100 100 100 39 100 100 89 100 12 5 23 44 67 76 100 100 100 100 100 100 100 100 100 100
100 100 100 75 91 100 100 96 100 100 79 91 100 100 100 99 22 5 21 59 70 69 100 100 100 100 100 100 100 100 100 100
100 100 100 96 94 100 100 100 100 100 81 97 97 100 78 100 36 5 57 100 100 84 100 100 100 100 100 100 100 100 100 100
100 100 100 100 100 100 100 100 100 100 100 72 100 100 67 100 84 15 100 100 100 100 68 100 100 100 100 100 100 100 100 100
100 100 97 100 100 100 100 100 100 100 100 100 100 100 100 100 88 89 100 100 100 100 76 100 100 100 100 100 100 100 100 100